Precipitable_Water
0.49 0.53 0.60 0.67 0.72 0.76 0.77 0.81 0.89 0.94 1.04 1.07 1.09 1.08 1.06 1.00 1.01 1.02 0.94 0.96 0.89 0.91
0.49 0.51 0.55 0.61 0.68 0.71 0.76 0.77 0.83 0.87 0.93 0.94 0.99 1.00 0.98 0.97 0.94 0.98 0.99 1.01 1.00 0.97
0.50 0.51 0.52 0.54 0.58 0.63 0.71 0.77 0.82 0.84 0.93 0.94 0.97 0.98 0.99 0.97 1.01 1.02 1.03 0.98 0.95 0.93
0.49 0.50 0.51 0.52 0.55 0.61 0.68 0.74 0.78 0.81 0.90 0.89 0.89 0.95 0.94 0.92 0.92 0.89 0.91 0.90 0.88 0.85
0.51 0.53 0.55 0.56 0.58 0.61 0.66 0.72 0.75 0.80 0.90 0.94 0.94 0.97 0.94 0.87 0.87 0.85 0.83 0.83 0.82 0.80
0.51 0.53 0.56 0.58 0.61 0.64 0.65 0.68 0.72 0.79 0.78 0.86 0.92 0.93 0.91 0.91 0.90 0.87 0.86 0.84 0.83 0.81
0.51 0.54 0.57 0.59 0.63 0.65 0.66 0.67 0.66 0.68 0.69 0.73 0.78 0.80 0.82 0.84 0.82 0.81 0.82 0.81 0.81 0.79
0.54 0.57 0.58 0.60 0.62 0.64 0.67 0.66 0.69 0.72 0.69 0.71 0.74 0.75 0.76 0.75 0.72 0.72 0.73 0.74 0.74 0.75
0.58 0.60 0.60 0.61 0.63 0.65 0.64 0.65 0.65 0.65 0.65 0.66 0.67 0.69 0.70 0.71 0.68 0.68 0.68 0.66 0.67 0.68
0.61 0.60 0.61 0.64 0.65 0.62 0.60 0.64 0.63 0.63 0.63 0.63 0.64 0.65 0.66 0.65 0.63 0.64 0.63 0.62 0.61 0.60
0.61 0.61 0.63 0.61 0.57 0.57 0.58 0.57 0.59 0.61 0.61 0.61 0.61 0.62 0.62 0.61 0.60 0.60 0.59 0.59 0.57 0.54
0.61 0.62 0.56 0.48 0.46 0.49 0.50 0.51 0.53 0.55 0.56 0.56 0.58 0.59 0.59 0.58 0.57 0.55 0.53 0.52 0.49 0.48
0.60 0.54 0.49 0.45 0.41 0.43 0.45 0.45 0.46 0.46 0.49 0.50 0.49 0.52 0.54 0.54 0.52 0.49 0.48 0.49 0.48 0.45
0.52 0.47 0.44 0.43 0.42 0.43 0.43 0.43 0.43 0.42 0.44 0.45 0.46 0.46 0.47 0.48 0.47 0.46 0.45 0.43 0.41 0.40
Wind_Speed
43 44 44 44 45 45 46 47 47 47 48 49 49 50 49 49 50 50 49 49 49 49
43 44 45 47 48 48 48 48 48 48 48 49 49 50 49 50 49 48 49 47 46 47
45 46 47 47 49 50 50 50 49 49 48 48 49 49 49 48 47 47 47 48 45 42
46 46 46 47 49 50 51 51 50 50 50 48 49 48 48 47 48 47 46 44 44 42
48 48 48 49 49 50 51 51 51 51 49 48 50 47 45 46 46 45 42 42 41 39
48 48 48 48 47 47 47 47 48 49 50 49 42 42 43 41 39 38 37 38 39 39
45 45 44 43 41 40 40 39 40 41 44 45 44 41 42 40 38 36 35 35 34 35
39 38 35 32 30 26 23 24 23 26 32 35 36 37 31 32 34 35 33 32 31 29
29 26 23 24 19 16 16 15 15 16 13 17 23 28 29 25 25 27 28 26 26 25
20 20 18 12 11 11 9 10 9 8 8 11 11 17 19 21 20 20 22 22 21 20
15 13 9 8 8 7 7 6 6 6 6 8 10 12 13 15 16 17 18 18 19 19
10 8 7 7 7 7 7 6 6 6 7 8 9 10 12 14 14 15 16 16 18 18
9 8 7 6 5 6 6 6 7 7 8 8 9 10 11 12 13 14 15 16 16 17
10 8 7 6 7 7 7 8 9 9 10 11 11 12 13 14 15 15 15 16 17 17
Wind_Direction
281 279 277 275 272 269 267 264 262 259 257 254 252 252 252 253 253 252 256 254 263 252
281 280 278 276 273 272 269 266 263 261 258 255 253 252 252 253 253 253 253 254 258 255
283 281 280 278 274 271 269 267 265 262 259 257 254 252 252 252 251 252 251 258 253 250
283 283 282 280 277 274 272 268 265 262 260 256 255 252 251 250 251 251 252 250 249 251
283 283 283 282 281 278 273 268 265 262 259 256 252 251 249 251 250 248 248 248 245 247
282 283 284 285 284 280 274 270 266 262 256 253 250 248 248 246 245 245 244 241 242 243
282 283 285 285 283 281 275 273 266 261 257 252 248 248 247 244 241 242 242 240 240 239
282 283 282 284 284 281 278 273 270 261 257 248 241 240 240 239 236 243 238 233 233 231
281 281 283 286 281 275 277 275 269 264 257 233 233 225 227 232 233 227 225 223 224 225
276 277 283 271 275 270 287 273 273 250 246 219 209 219 220 226 216 215 217 219 220 223
271 267 260 259 274 273 277 279 255 252 246 228 232 223 212 210 213 216 215 218 222 225
256 241 247 255 266 275 272 271 269 261 254 248 242 233 226 221 219 223 225 226 227 230
229 230 240 245 267 282 276 274 272 272 270 259 248 237 231 231 230 228 232 235 237 235
226 225 238 256 280 284 278 281 284 282 277 271 261 251 244 241 242 240 239 240 242 242